Location: ????? ????
(37.9717°N, 23.4051°E)
Time: 05:32:41
(UTC+00:00)

Terra - Pass Details

Date: 18 April 2024
Orbit: 691 x 696 km, 98.0° (Epoch: 23 May)

Event Time Altitude Azimuth Distance (km) Brightness Sun altitude
Exits shadow 19:01:47 27° 60° (ENE) 1,340 3.0 -21.6°
Drops below altitude 10° 19:05:21 10° 12° (NNE) 2,162 4.6 -22.1°
Sets 19:07:52 0° 1° (N) 3,083 5.6 -22.5°
